Regional Weather Roundup
Issued by NWS

Home | Current Version | Previous Version | Graphics & Text | Print | Product List | Glossary On
Versions: 1 2 3 4 5 6 7 8 9 10 11 12 13 14 15 16 17 18 19 20 21 22 23 24 25 26 27 28 29 30 31 32 33 34 35 36 37 38 39 40 41 42 43 44 45 46 47 48 49 50
000
ASUS45 KCYS 312310
RWRWY

WYOMING REGIONAL WEATHER ROUNDUP
NATIONAL WEATHER SERVICE CHEYENNE WY
500 PM MDT MON AUG 31 2015

NOTE:  "FAIR" INDICATES FEW OR NO CLOUDS BELOW 12,000 FEET
WITH NO SIGNIFICANT WEATHER AND/OR OBSTRUCTIONS TO VISIBILITY.

WYZ001-010000-
YELLOWSTONE NATIONAL PARK

CITY           SKY/WX    TMP DP  RH WIND       PRES   REMARKS
LK YELLOWSTONE   N/A     61  28  28 VRB7      30.23S
W YELLOWSTONE  NOT AVBL

$$
WYZ002>013-054>058-071-098>099-010000-
NORTHERN WYOMING

CITY           SKY/WX    TMP DP  RH WIND       PRES   REMARKS
JACKSON        SUNNY     73  25  16 SW17      30.12F
CODY           FAIR      82  28  14 W8        29.95S
GREYBULL       FAIR      86  23  10 CALM      29.87F
WORLAND        FAIR      88  34  14 N10       29.86F
SHERIDAN       FAIR      84  42  22 N3        29.90F
BUFFALO        FAIR      84  41  21 N13       29.95R
GILLETTE       FAIR      86  33  15 W12G17    29.91S
HULETT         FAIR      79  52  38 NE12      29.95F
NEWCASTLE      FAIR      82  46  28 SE17      29.95F

$$
WYZ014>020-022>026-101>103-010000-
CENTRAL WYOMING

CITY           SKY/WX    TMP DP  RH WIND       PRES   REMARKS
BIG PINEY      FAIR      78  23  13 W16       30.15F
PINEDALE       FAIR      75  21  13 W20G26    30.16S
DUBOIS         FAIR      72  18  13 NW23      30.11F
LANDER         FAIR      86  22   9 N9        29.97F
RIVERTON       FAIR      86  19   8 SW17G24   29.98F
CASPER         FAIR      85  23  10 W21G28    29.98F
DOUGLAS        LGT RAIN  77  45  32 S20G29    30.00R

$$
WYZ021-027>030-104>119-010000-
SOUTHERN WYOMING

CITY           SKY/WX    TMP DP  RH WIND       PRES   REMARKS
EVANSTON       FAIR      79  30  16 W15G26    30.18S
KEMMERER       FAIR      77  23  13 W16G23    30.18S
FORT BRIDGER   MOCLDY    81  28  15 W16G25    30.19F
ROCK SPRINGS   FAIR      75  38  26 SW21      30.14F
DIXON          RAIN      57  47  71 NE10      30.28R
RAWLINS        FAIR      68  39  34 S8        30.18F
SARATOGA       TSTM      57  46  67 W21G32    30.28R
LARAMIE        FAIR      65  47  52 SE13      30.21F
CHEYENNE       LGT RAIN  66  48  52 NW14G23   30.18R
TORRINGTON     CLOUDY    82  51  34 SW14G24   30.00R
PINE BLUFFS    FAIR      77  45  31 S9        30.07S

$$


USA.gov is the U.S. government's official web portal to all federal, state and local government web resources and services.